Weather History for Black River Falls, WI

Change the Weather History Date:

Monday, December 31, 2012

  Actual Average (KLSE) Record (KLSE)
Temperature  
Mean Temperature 5 °F 18 °F  
Max Temperature 19 °F 26 °F 59 °F (1965)
Min Temperature -11 °F 10 °F -20 °F (1976)
Degree Days  
Heating Degree Days 60 47  
Month to date heating degree days 1344  
Since 1 July heating degree days 2844  
Cooling Degree Days 0 0  
Month to date cooling degree days 0  
Year to date cooling degree days 782  
Moisture  
Dew Point 6 °F    
Average Humidity 79    
Maximum Humidity 100    
Minimum Humidity 58    
Precipitation  
Precipitation 0.00 in 0.03 in 0.59 in (2006)
Month to date precipitation 1.36  
Year to date precipitation 33.06  
Snow  
Snow 0.00 in 0.30 in 6.20 in (1911)
Month to date snowfall 11.3  
Since 1 July snowfall 15.6  
Snow Depth -    
Sea Level Pressure  
Sea Level Pressure 30.08 in    
Wind  
Wind Speed 4 mph (NW)    
Max Wind Speed 14 mph    
Max Gust Speed 22 mph    
Visibility 9 miles    
Events Snow    
T = Trace of Precipitation, MM = Missing Value Source: NWS Daily Summary

Daily Weather History Graph

Daily Weather History Graph

Search for Another Location

Airport:

Trip Planner

Search our weather history database for the weather conditions in past years. The results will help you decide how hot, cold, wet, or windy it might be!

Date:

Astronomy

Dec. 31, 2012 Rise Set
Actual Time 7:39 AM CST 4:34 PM CST
Civil Twilight 7:05 AM CST 5:07 PM CST
Nautical Twilight 6:29 AM CST 5:44 PM CST
Astronomical Twilight 5:54 AM CST 6:19 PM CST
Moon 8:13 PM CST (12/31) 9:13 AM CST (12/31)
Length of Visible Light 10h 01m
Length of Day
8h 55m
Waning Gibbous, 90% of the Moon is Illuminated
Dec 31
Waning Gibbous
Jan 4
Last Quarter
Jan 11
New
Jan 18
First Quarter
Jan 26
Full

Hourly Weather History & Observations

Time (CST) Temp. Windchill Dew Point Humidity Pressure Visibility Wind Dir Wind Speed Gust Speed Precip Events Conditions
12:15 AM 8.6 °F - 6.8 °F 92% 29.89 in 7.0 mi Calm Calm - N/A   Clear
12:35 AM 8.6 °F - 8.6 °F 100% 29.91 in 4.0 mi Calm Calm - N/A   Clear
12:55 AM 8.6 °F - 5.0 °F 85% 29.91 in 7.0 mi Calm Calm - N/A   Clear
1:15 AM 5.0 °F - 3.2 °F 92% 29.91 in 5.0 mi Calm Calm - N/A   Clear
1:55 AM 8.6 °F - 5.0 °F 85% 29.91 in 4.0 mi Calm Calm - N/A   Clear
2:15 AM 5.0 °F - 1.4 °F 85% 29.92 in 7.0 mi Calm Calm - N/A   Clear
2:35 AM 5.0 °F - 1.4 °F 85% 29.93 in 7.0 mi Calm Calm - N/A   Clear
3:15 AM 12.2 °F 2.9 °F 12.2 °F 100% 29.96 in 7.0 mi West 5.8 mph - N/A   Mostly Cloudy
3:35 AM 19.4 °F 12.8 °F 19.4 °F 100% 29.96 in 10.0 mi West 4.6 mph - N/A   Scattered Clouds
3:55 AM 19.4 °F 10.4 °F 19.4 °F 100% 29.96 in 10.0 mi West 6.9 mph - N/A   Clear
4:15 AM 19.4 °F 11.5 °F 17.6 °F 93% 29.98 in 10.0 mi WNW 5.8 mph - N/A   Scattered Clouds
4:35 AM 19.4 °F 8.6 °F 19.4 °F 100% 29.97 in 10.0 mi WNW 9.2 mph - N/A   Mostly Cloudy
4:55 AM 19.4 °F 6.6 °F 19.4 °F 100% 29.98 in 7.0 mi WNW 12.7 mph 18.4 mph N/A   Overcast
5:15 AM 19.4 °F 8.6 °F 19.4 °F 100% 29.99 in 7.0 mi NW 9.2 mph - N/A   Overcast
5:35 AM 19.4 °F 8.6 °F 19.4 °F 100% 30.00 in 7.0 mi WNW 9.2 mph - N/A   Overcast
5:55 AM 19.4 °F 9.5 °F 19.4 °F 100% 30.02 in 7.0 mi WNW 8.1 mph - N/A   Overcast
6:15 AM 19.4 °F 10.4 °F 19.4 °F 100% 30.03 in 7.0 mi NW 6.9 mph - N/A   Overcast
6:35 AM 19.4 °F 7.2 °F 17.6 °F 93% 30.03 in 7.0 mi WNW 11.5 mph 21.9 mph N/A   Overcast
7:15 AM 17.6 °F 5.7 °F 15.8 °F 93% 30.05 in 7.0 mi WNW 10.4 mph 19.6 mph N/A   Overcast
7:35 AM 17.6 °F 6.4 °F 14.0 °F 86% 30.05 in 7.0 mi NW 9.2 mph 20.7 mph N/A Snow Light Snow
7:55 AM 17.6 °F 5.7 °F 12.2 °F 79% 30.05 in 7.0 mi NW 10.4 mph - N/A Snow Light Snow
8:15 AM 17.6 °F 3.7 °F 12.2 °F 79% 30.05 in 10.0 mi WNW 13.8 mph 18.4 mph N/A Snow Light Snow
8:35 AM 17.6 °F 7.3 °F 10.4 °F 73% 30.05 in 10.0 mi NW 8.1 mph 19.6 mph N/A Snow Light Snow
8:55 AM 17.6 °F 6.4 °F 10.4 °F 73% 30.06 in 10.0 mi NW 9.2 mph - N/A Snow Light Snow
9:15 AM 17.6 °F 7.3 °F 10.4 °F 73% 30.07 in 10.0 mi WNW 8.1 mph - N/A Snow Light Snow
9:35 AM 17.6 °F 7.3 °F 10.4 °F 73% 30.07 in 10.0 mi NW 8.1 mph - N/A Snow Light Snow
10:15 AM 15.8 °F 5.1 °F 8.6 °F 73% 30.10 in 10.0 mi WNW 8.1 mph - N/A   Mostly Cloudy
10:35 AM 17.6 °F 9.3 °F 8.6 °F 68% 30.10 in 10.0 mi NNW 5.8 mph - N/A   Mostly Cloudy
10:55 AM 17.6 °F 6.4 °F 8.6 °F 68% 30.10 in 10.0 mi NW 9.2 mph 17.3 mph N/A   Mostly Cloudy
11:15 AM 17.6 °F 5.0 °F 8.6 °F 68% 30.09 in 10.0 mi NNW 11.5 mph 17.3 mph N/A   Scattered Clouds
11:35 AM 17.6 °F 5.0 °F 8.6 °F 68% 30.09 in 10.0 mi NW 11.5 mph - N/A   Scattered Clouds
11:55 AM 17.6 °F 6.4 °F 8.6 °F 68% 30.08 in 10.0 mi WNW 9.2 mph - N/A   Clear
12:15 PM 17.6 °F 8.2 °F 8.6 °F 68% 30.08 in 10.0 mi NW 6.9 mph - N/A   Clear
12:35 PM 17.6 °F 7.3 °F 8.6 °F 68% 30.08 in 10.0 mi NNW 8.1 mph - N/A   Clear
12:55 PM 19.4 °F 7.2 °F 8.6 °F 63% 30.08 in 10.0 mi NNW 11.5 mph - N/A   Clear
1:35 PM 19.4 °F 10.4 °F 8.6 °F 63% 30.08 in 10.0 mi NW 6.9 mph - N/A   Clear
1:55 PM 19.4 °F 11.5 °F 8.6 °F 63% 30.08 in 10.0 mi NW 5.8 mph - N/A   Clear
2:15 PM 19.4 °F 9.5 °F 6.8 °F 58% 30.08 in 10.0 mi NNW 8.1 mph - N/A   Clear
2:35 PM 19.4 °F 10.4 °F 6.8 °F 58% 30.09 in 10.0 mi NW 6.9 mph - N/A   Clear
2:55 PM 17.6 °F 12.3 °F 6.8 °F 63% 30.09 in 10.0 mi WNW 3.5 mph - N/A   Clear
3:15 PM 17.6 °F 8.2 °F 6.8 °F 63% 30.11 in 10.0 mi WNW 6.9 mph - N/A   Clear
3:35 PM 17.6 °F 6.4 °F 6.8 °F 63% 30.11 in 10.0 mi WNW 9.2 mph - N/A   Clear
3:55 PM 17.6 °F 6.4 °F 6.8 °F 63% 30.11 in 10.0 mi West 9.2 mph - N/A   Clear
4:15 PM 15.8 °F 6.1 °F 5.0 °F 62% 30.11 in 10.0 mi NW 6.9 mph - N/A   Clear
4:35 PM 14.0 °F 5.1 °F 5.0 °F 67% 30.12 in 10.0 mi WNW 5.8 mph - N/A   Clear
4:55 PM 14.0 °F 6.5 °F 5.0 °F 67% 30.12 in 10.0 mi WNW 4.6 mph - N/A   Clear
5:15 PM 14.0 °F 6.5 °F 5.0 °F 67% 30.12 in 10.0 mi WNW 4.6 mph - N/A   Clear
5:35 PM 10.4 °F 4.0 °F 3.2 °F 73% 30.13 in 10.0 mi WNW 3.5 mph - N/A   Clear
5:55 PM 12.2 °F 6.1 °F 5.0 °F 73% 30.13 in 10.0 mi NW 3.5 mph - N/A   Clear
6:15 PM 12.2 °F 6.1 °F 5.0 °F 73% 30.14 in 10.0 mi NW 3.5 mph - N/A   Clear
6:55 PM 8.6 °F 0.1 °F 3.2 °F 79% 30.14 in 10.0 mi NW 4.6 mph - N/A   Clear
7:15 PM 10.4 °F 4.0 °F 3.2 °F 73% 30.15 in 10.0 mi NNW 3.5 mph - N/A   Clear
7:35 PM 8.6 °F - 1.4 °F 73% 30.16 in 10.0 mi Calm Calm - N/A   Clear
7:55 PM 3.2 °F - -2.2 °F 78% 30.16 in 10.0 mi Calm Calm - N/A   Clear
8:15 PM 1.4 °F - -2.2 °F 85% 30.16 in 10.0 mi Calm Calm - N/A   Clear
8:35 PM -0.4 °F - -4.0 °F 85% 30.17 in 10.0 mi Calm Calm - N/A   Clear
8:55 PM -2.2 °F - -5.8 °F 85% 30.17 in 10.0 mi Calm Calm - N/A   Clear
9:15 PM -5.8 °F - -9.4 °F 84% 30.17 in 10.0 mi Calm Calm - N/A   Clear
9:35 PM -5.8 °F - -11.2 °F 77% 30.17 in 10.0 mi Calm Calm - N/A   Clear
9:55 PM -7.6 °F - -13.0 °F 77% 30.18 in 10.0 mi Calm Calm - N/A   Clear
10:15 PM -7.6 °F - -11.2 °F 84% 30.18 in 10.0 mi Calm Calm - N/A   Clear
10:35 PM -7.6 °F - -11.2 °F 84% 30.20 in 10.0 mi Calm Calm - N/A   Clear
10:55 PM -7.6 °F -16.5 °F -11.2 °F 84% 30.20 in 10.0 mi West 3.5 mph - N/A   Clear
11:15 PM -7.6 °F - -11.2 °F 84% 30.21 in 10.0 mi Calm Calm - N/A   Clear
11:35 PM -9.4 °F - -14.8 °F 77% 30.21 in 10.0 mi Calm Calm - N/A   Clear
11:55 PM -11.2 °F - -14.8 °F 84% 30.21 in 10.0 mi Calm Calm - N/A   Clear